Weather in Severny

Russia / Sverdlovsk Oblast     60°58′56″N   60°23′32″E
temp.,
°C
wind,
m/s
gust,
m/s
humid.,
%
clouds,
%
prec.,
mm/h
press.,
hPa
HPBL,
m
11 april, sun
sun1123:00+1sse2898100 0.1 1033214
02:00+1se1599100 1.9 1030252
05:00+1se14100100 6.6 1028169
08:00+1s25100100 1.4 1026177
11:00+3sw1399100 1.4 1025112
14:00+5sw2894100 0.0 1024495
17:00+5sw3993100 0.0 1025695
20:00+4sw38905 0.0 1026281
12 april, mon
mon1223:000sw289073 0.0 1028145
02:00+1wsw279296 0.0 1029170
05:00−2wsw24955 0.0 103170
08:00+2wsw411785 0.0 10321035
11:00+5wnw512630 0.0 10331362
14:00+7w59523 0.0 10341305
17:00+6w511660 0.0 10351540
20:00+2wsw38815 0.0 1036201
13 april, tue
tue1323:000wsw289097 0.0 1038152
02:00−1wsw278915 0.0 1037119
05:00−1sw21086100 0.0 1037188
08:00+4w41566100 0.0 1035634
11:00+7wsw41358100 0.0 1034695
14:00+10wsw410525 0.0 1032847
17:00+10sw41051100 0.0 1031822
20:00+5sw2771100 0.0 1029118
14 april, wed
wed1423:00+7wsw41370100 0.0 1027500
02:00+8wsw51677100 0.0 1024631
05:00+7wsw51386100 0.0 1024480
08:00+8sw3988100 0.0 1024438
11:00+8sw3887100 0.0 1024360
14:00+10wsw4985100 0.0 1024545
17:00+11w41284100 0.0 1023572
20:00+8ssw229085 0.0 102129
15 april, thu
thu1523:00+8sw4128396 0.0 1019440
02:00+7sw3108419 0.0 1017280
05:00+7sw3108498 0.0 1015247
08:00+9w41178100 0.0 1015648
11:00+10w2581100 0.0 1016778
14:00+5nnw1488100 0.4 1017351
17:00+4n2594100 1.5 1018597
20:00+3n2797100 1.9 1019444